Location: Chacón
(10.5789°N, 66.9317°W)
Time: 14:18:16
(UTC+00:00)

Cosmos 1727 Rocket - Pass Details

Date: 14 August 2024
Orbit: 960 x 997 km, 82.9° (Epoch: 08 September)

Event Time Altitude Azimuth Distance (km) Brightness Sun altitude
Rises 00:14:51 0° 352° (N) 3,639 7.4 -21.5°
Reaches altitude 10° 00:17:21 10° 350° (N) 2,690 6.7 -22.1°
Maximum altitude 00:23:28 72° 268° (W) 1,007 4.1 -23.5°
Drops below altitude 10° 00:29:35 10° 184° (S) 2,687 6.1 -24.9°
Enters shadow 00:29:54 - 184° (S) 2,808 6.2 -25.0°
